OPS 4682 DEB, 15529

Orbit data source: Space-Track

OPS 4682 DEB, 15529 is space debris in LEO originally from a launch on Sat, 03 Apr 1965 UTC launched from the Air Force Western Test Range (AFWTR). Debris objects in space refer to the collection of defunct objects orbiting the Earth. Examples of debris include non-operational satellites, rocket bodies, and fragments generated from explosions, collisions, or faulty payload assembly.

Loading next visibility...
Identifier
15529, 1965-027S
Orbit
LEO
Country
Flag of USUS
Related business
Manufacturer
Unknown
Mission
Spacecraft
Bus & Motor
Unknown
Mass
Unknown
Launch date (UTC)
1965-04-03 (61 years ago)
Launch vehicle
Unknown
Launch site
Air Force Western Test Range (AFWTR)
Object type
Payload
Rocket body
Debris
Shape & HBR
Unknown shape, 0.1 m
Radar Cross Section
Small (<0.1 m²)

Expand to show TLE details & history
Last TLE update: 1 week ago

TLE from 1 week ago
0 OPS 4682 DEB
1 15529U 65027S   26113.14231462 -.00000450  00000-0 -15347-2 0  9991
2 15529  90.2403   5.0890 0032656 120.1575  37.3041 12.99247222149931
Epoch: 2026-04-23T03:24Z
TLE epoch observation values (Epoch: 2026-04-23T03:24:55.983Z)
Latitude
22.32332°
Longitude
-77.23973°
Altitude
1,247.92 km
Speed
7.242 km/s
True Right ascension
12h 20m 44s
True Declination
22° 12' 38"
Sunlit
Object was in full shadow at epoch
Visualization orbit readout
Latitude
Unknown
Longitude
Unknown
Altitude
Unknown
Speed
Unknown
Apparent Right ascension
Unknown
Apparent Declination
Unknown
Sunlit
N/A
Visualization observer readout
Local Sidereal Time
00:33:59
Azimuth
Unknown
Elevation
Unknown
Doppler factor
Unknown
Orbital elements
Apogee altitude
1,287.116 km
Perigee altitude
1,237.215 km
Semi-major axis
7,640.303 km
Eccentricity
0.00327
Inclination
90.2403°
RAAN
5.089°
Arg. of periapsis
120.1575°
True anomaly
37.53163°
Mean anomaly
37.3041°
Eccentric anomaly
37.41779°
Mean motion
3.24995 °/min
Orbital period
110.77 mins
BSTAR
-0.0015347
Loading maneuver chart data...
Computing Atmospheric mass density...
Loading historical data...
Loading historical data...
Loading historical data...
Loading historical data...
Loading historical data...
Loading historical data...
Loading historical data...

Documentation

Showing up to 5 results
|